Delta Virtual Airport Information Service

Kotzebue Ralph Wien Memorial Airport

ICAO: PAOT Country: United States
Latitude: 66.8847 Longitude: -162.598
Latest Arrival : ASA7007 (1B) (PAOM-PAOT) Latest Departure : DALJUMP (PAOT-KLAX)


WX CaptureLIVE
Data provided by noaa.gov | Fetched at 03:51:30

METAR : PAOT 300753Z 01005KT 10SM OVC036 03/01 A3003

TAF : PAOT 300537Z 3006/0106 12006KT P6SM SCT015 OVC035 FM301400 06013KT P6SM SCT030 SCT050 FM302000 03015KT P6SM FEW050 SCT100


Runway Data for PAOT
Data provided by openaviationdata.com

Runway ID Mag Var Hdg Length Elevation Surface ILS Freq ILS Id ILS Slope
8 18 83° 5882 ft 11 ft Asphalt 110.7 IOTZ 3
17 18 175° 3786 ft 11 ft Gravel -- -- --
26 18 263° 5882 ft 11 ft Asphalt -- -- --
35 18 355° 3786 ft 11 ft Gravel -- -- --

Kotzebue Ralph Wien Memorial Airport, United States
Use only for reference purposes



Not for navigational purposes.